TimeMST,TemperatureF,Dew PointF,Humidity,Sea Level PressureIn,VisibilityMPH,Wind Direction,Wind SpeedMPH,Gust SpeedMPH,PrecipitationIn,Events,Conditions,WindDirDegrees,DateUTC
12:15 AM,19.4,17.6,93,29.90,8.0,ENE,3.5,-,N/A,,Clear,70,2012-11-30 07:15:00
12:35 AM,19.4,17.6,93,29.88,8.0,ENE,5.8,-,N/A,,Clear,70,2012-11-30 07:35:00
12:55 AM,19.4,17.6,93,29.87,8.0,ENE,4.6,-,N/A,,Clear,60,2012-11-30 07:55:00
1:15 AM,19.4,17.6,93,29.86,8.0,ENE,4.6,-,N/A,,Clear,60,2012-11-30 08:15:00
1:35 AM,21.2,17.6,86,29.86,8.0,NE,3.5,-,N/A,,Clear,50,2012-11-30 08:35:00
1:55 AM,21.2,17.6,86,29.85,8.0,NE,4.6,-,N/A,,Clear,50,2012-11-30 08:55:00
2:15 AM,19.4,19.4,100,29.85,9.0,NNE,3.5,-,N/A,,Clear,20,2012-11-30 09:15:00
2:35 AM,19.4,17.6,93,29.85,10.0,North,3.5,-,N/A,,Clear,360,2012-11-30 09:35:00
2:55 AM,21.2,19.4,93,29.85,10.0,NNW,3.5,-,N/A,,Clear,330,2012-11-30 09:55:00
3:16 AM,21.2,17.6,86,29.84,10.0,North,3.5,-,N/A,,Clear,360,2012-11-30 10:16:00
3:35 AM,21.2,17.6,86,29.83,10.0,NE,3.5,-,N/A,,Clear,40,2012-11-30 10:35:00
3:55 AM,21.2,17.6,86,29.82,10.0,NE,3.5,-,N/A,,Clear,50,2012-11-30 10:55:00
4:15 AM,19.4,15.8,86,29.82,10.0,Calm,Calm,-,N/A,,Clear,0,2012-11-30 11:15:00
4:35 AM,19.4,17.6,93,29.82,9.0,Calm,Calm,-,N/A,,Clear,0,2012-11-30 11:35:00
4:55 AM,19.4,17.6,93,29.82,10.0,Calm,Calm,-,N/A,,Clear,0,2012-11-30 11:55:00
5:15 AM,21.2,15.8,80,29.82,10.0,Calm,Calm,-,N/A,,Clear,0,2012-11-30 12:15:00
5:35 AM,21.2,19.4,93,29.81,10.0,East,3.5,-,N/A,,Clear,90,2012-11-30 12:35:00
5:55 AM,21.2,17.6,86,29.80,10.0,Calm,Calm,-,N/A,,Clear,0,2012-11-30 12:55:00
6:15 AM,19.4,17.6,93,29.79,9.0,Calm,Calm,-,N/A,,Clear,0,2012-11-30 13:15:00
6:35 AM,19.4,15.8,86,29.79,10.0,Calm,Calm,-,N/A,,Clear,0,2012-11-30 13:35:00
6:55 AM,19.4,17.6,93,29.77,10.0,Calm,Calm,-,N/A,,Clear,0,2012-11-30 13:55:00
7:15 AM,19.4,15.8,86,29.76,10.0,ESE,3.5,-,N/A,,Clear,110,2012-11-30 14:15:00
7:35 AM,19.4,12.2,74,29.75,10.0,Calm,Calm,-,N/A,,Clear,0,2012-11-30 14:35:00
7:55 AM,19.4,12.2,74,29.76,9.0,Calm,Calm,-,N/A,,Clear,0,2012-11-30 14:55:00
8:15 AM,19.4,15.8,86,29.76,9.0,West,4.6,-,N/A,,Clear,280,2012-11-30 15:15:00
8:35 AM,24.8,21.2,86,29.76,10.0,WNW,4.6,-,N/A,,Clear,290,2012-11-30 15:35:00
8:55 AM,26.6,26.6,100,29.75,10.0,SW,3.5,-,N/A,,Clear,230,2012-11-30 15:55:00
9:15 AM,28.4,24.8,86,29.75,10.0,SE,3.5,-,N/A,,Clear,140,2012-11-30 16:15:00
9:35 AM,28.4,24.8,86,29.75,10.0,Calm,Calm,-,N/A,,Clear,0,2012-11-30 16:35:00
10:15 AM,30.2,24.8,80,29.75,10.0,Calm,Calm,-,N/A,,Clear,0,2012-11-30 17:15:00
10:35 AM,33.8,30.2,87,29.74,10.0,SSW,3.5,-,N/A,,Clear,200,2012-11-30 17:35:00
10:55 AM,35.6,32.0,87,29.73,10.0,SSW,3.5,-,N/A,,Clear,200,2012-11-30 17:55:00
11:15 AM,30.2,26.6,86,29.71,10.0,Calm,Calm,-,N/A,,Clear,0,2012-11-30 18:15:00
11:35 AM,30.2,24.8,80,29.70,10.0,Calm,Calm,-,N/A,,Clear,0,2012-11-30 18:35:00
11:55 AM,33.8,28.4,81,29.69,10.0,Calm,Calm,-,N/A,,Clear,0,2012-11-30 18:55:00
12:35 PM,37.4,32.0,81,29.67,10.0,Calm,Calm,-,N/A,,Clear,0,2012-11-30 19:35:00
12:55 PM,37.4,30.2,75,29.67,10.0,Calm,Calm,-,N/A,,Clear,0,2012-11-30 19:55:00
1:15 PM,37.4,30.2,75,29.64,10.0,Calm,Calm,-,N/A,,Clear,0,2012-11-30 20:15:00
1:35 PM,37.4,30.2,75,29.64,10.0,SSE,3.5,-,N/A,,Clear,160,2012-11-30 20:35:00
1:55 PM,39.2,30.2,70,29.63,10.0,Calm,Calm,-,N/A,,Clear,0,2012-11-30 20:55:00
2:15 PM,41.0,32.0,70,29.61,10.0,Calm,Calm,-,N/A,,Clear,0,2012-11-30 21:15:00
2:35 PM,39.2,30.2,70,29.61,10.0,Calm,Calm,-,N/A,,Clear,0,2012-11-30 21:35:00
3:15 PM,39.2,33.8,81,29.62,10.0,WNW,4.6,-,N/A,,Clear,290,2012-11-30 22:15:00
3:35 PM,39.2,32.0,75,29.61,10.0,West,5.8,-,N/A,,Clear,280,2012-11-30 22:35:00
3:55 PM,39.2,30.2,70,29.62,10.0,Calm,Calm,-,N/A,,Clear,0,2012-11-30 22:55:00
4:15 PM,37.4,30.2,75,29.61,10.0,North,3.5,-,N/A,,Partly Cloudy,360,2012-11-30 23:15:00
4:35 PM,37.4,30.2,75,29.61,10.0,Calm,Calm,-,N/A,,Clear,0,2012-11-30 23:35:00
4:55 PM,35.6,30.2,81,29.62,10.0,West,8.1,-,N/A,,Clear,280,2012-11-30 23:55:00
5:15 PM,37.4,30.2,75,29.61,10.0,WNW,4.6,-,N/A,,Clear,290,2012-12-01 00:15:00
5:35 PM,37.4,30.2,75,29.61,10.0,WNW,4.6,-,N/A,,Mostly Cloudy,290,2012-12-01 00:35:00
5:55 PM,39.2,30.2,70,29.61,10.0,West,3.5,-,N/A,,Scattered Clouds,270,2012-12-01 00:55:00
6:15 PM,37.4,30.2,75,29.62,10.0,West,5.8,-,N/A,,Clear,280,2012-12-01 01:15:00
6:55 PM,35.6,28.4,75,29.61,10.0,SW,4.6,-,N/A,,Mostly Cloudy,220,2012-12-01 01:55:00
7:15 PM,35.6,30.2,81,29.62,10.0,South,3.5,-,N/A,,Scattered Clouds,170,2012-12-01 02:15:00
7:35 PM,35.6,28.4,75,29.61,10.0,SSW,4.6,-,N/A,,Clear,200,2012-12-01 02:35:00
7:55 PM,35.6,30.2,81,29.61,10.0,SSE,6.9,-,N/A,,Partly Cloudy,150,2012-12-01 02:55:00
8:15 PM,35.6,30.2,81,29.61,10.0,ESE,4.6,-,N/A,,Clear,110,2012-12-01 03:15:00
8:35 PM,33.8,28.4,81,29.60,10.0,South,3.5,-,N/A,,Clear,170,2012-12-01 03:35:00
8:55 PM,33.8,28.4,81,29.61,10.0,SSE,9.2,-,N/A,,Clear,160,2012-12-01 03:55:00
9:15 PM,33.8,28.4,81,29.61,10.0,SSE,6.9,-,N/A,,Clear,160,2012-12-01 04:15:00
9:35 PM,33.8,30.2,87,29.61,10.0,South,3.5,-,N/A,,Partly Cloudy,170,2012-12-01 04:35:00
9:55 PM,33.8,28.4,81,29.61,10.0,SSE,4.6,-,N/A,,Clear,150,2012-12-01 04:55:00
10:15 PM,30.2,24.8,80,29.61,10.0,South,5.8,-,N/A,,Clear,190,2012-12-01 05:15:00
10:35 PM,30.2,26.6,86,29.62,10.0,SW,4.6,-,N/A,,Clear,220,2012-12-01 05:35:00
10:55 PM,30.2,26.6,86,29.63,10.0,South,9.2,-,N/A,,Clear,170,2012-12-01 05:55:00
11:15 PM,32.0,28.4,87,29.63,10.0,SSW,6.9,-,N/A,,Clear,200,2012-12-01 06:15:00
11:35 PM,32.0,26.6,80,29.63,10.0,SW,8.1,-,N/A,,Clear,230,2012-12-01 06:35:00
11:55 PM,32.0,28.4,87,29.64,10.0,SW,8.1,-,N/A,,Clear,230,2012-12-01 06:55:00